Regional Weather Roundup
Issued by NWS

Home | Current Version | Previous Version | Text Only | Print | Product List | Glossary On
Versions: 1 2 3 4 5 6 7 8 9 10 11 12 13 14 15 16 17 18 19 20 21 22 23 24 25 26 27 28 29 30 31 32 33 34 35 36 37 38 39 40 41 42 43 44 45 46 47 48 49 50
090
ASUS45 KSLC 290710
RWRUT

UTAH REGIONAL WEATHER ROUNDUP
NATIONAL WEATHER SERVICE SALT LAKE CITY UT
100 AM MDT THU SEP 29 2016

UTZ001>011-023>025-290800-

NORTHERN UTAH

CITY           SKY/WX    TMP DP  RH WIND       PRES   REMARKS
BRIGHAM CITY     N/A     59  53  81 SW5       30.19S
HILL AFB       MOCLDY    63  49  59 E6        30.22R
LOGAN          MOCLDY    60  51  72 S6        30.20F
OGDEN          MOCLDY    62  52  69 CALM      30.20R
PROVO AIRPORT  CLOUDY    61  52  72 CALM      30.22
SALT LAKE CITY MOCLDY    65  54  67 SE7       30.19F
VERNAL         CLOUDY    59  48  67 CALM      30.29R
WENDOVER       PTCLDY    64  46  52 MISG      30.19
HEBER CITY     CLOUDY    55  45  67 CALM      30.26S
WEST JORDAN    MOCLDY    64  50  59 CALM      30.22S

$$

UTZ012>022-026-027-290800-

SOUTHERN/CENTRAL UTAH

CITY           SKY/WX    TMP DP  RH WIND       PRES   REMARKS
BLANDING       CLOUDY    61  46  58 N6        30.41F
BRYCE CANYON   LGT RAIN  49  46  90 SE15      30.44R
CEDAR CITY     PTCLDY    56  45  66 VRB3      30.26S
DELTA          MOCLDY    55  46  71 S7        30.21S
MILFORD        PTCLDY    56  45  66 SW10      30.23S
MOAB/CYNLANDS  MOCLDY    67  44  43 W3        30.23R
PRICE          CLOUDY    64  40  41 E7        30.31S
ST GEORGE      CLOUDY    68  48  49 SE6       30.18R

$$

REGIONAL REPORTS     COLORADO/ARIZONA

CITY           SKY/WX    TMP DP  RH WIND       PRES   REMARKS
CRAIG, CO      CLOUDY    48  37  65 S5        30.32R
GRAND JUNCTION CLOUDY    70  39  32 N9        30.25R
RIFLE          CLOUDY    56  43  61 N3        30.30R
MONTROSE       CLOUDY    61  41  47 SE9       30.35R
CORTEZ         CLOUDY    56  49  77 NW3       30.37R
PAGE, AZ       CLOUDY    63  57  81 SW3       30.27R
GRAND CANYON   MOCLDY    53  50  89 CALM      30.37R
KINGMAN        MOCLDY    63  45  51 SE7       30.14S
FLAGSTAFF      CLOUDY    50  50 100 CALM      30.39R

$$

REGIONAL REPORTS    NEVADA/IDAHO/WYOMING

CITY           SKY/WX    TMP DP  RH WIND       PRES   REMARKS
LAS VEGAS, NV  PTCLDY    75  46  35 S5        30.06R
ELY            MOCLDY    56  40  55 S9        30.26S
ELKO           MOCLDY    68  36  30 S16G23    30.14S
POCATELLO, ID  PTCLDY    66  45  46 S10       30.16S
BURLEY         PTCLDY    67  48  50 S13       30.09F
EVANSTON, WY   CLOUDY    54  40  59 SE8       30.35S
ROCK SPRINGS   CLOUDY    58  36  43 SE5       30.34R

$$




USA.gov is the U.S. government's official web portal to all federal, state and local government web resources and services.